• In Czech Republic
  • List of Countries
  • For 7 days
  • Water Temperature
  • Satellite Maps
  • Weather Map
  • Weather Widgets
  • user-avatar
    Login

    Hourly Weather Kızıltepe

    Today, 24 October, Tuesday

    Time Temperature Precipitation Wind Pressure Humidity
    00:00 +20°C° 0 mm 2 mps 719 mmHg 24%
    01:00 +20°C° 0 mm 2 mps 719 mmHg 25%
    02:00 +19°C° 0 mm 2 mps 719 mmHg 25%
    03:00 +20°C° 0 mm 2 mps 719 mmHg 25%
    04:00 +19°C° 0 mm 2 mps 719 mmHg 26%
    05:00 +19°C° 0 mm 2 mps 719 mmHg 27%
    06:00 +18°C° 0 mm 2 mps 719 mmHg 27%
    07:00 +20°C° 0 mm 3 mps 719 mmHg 25%
    08:00 +21°C° 0 mm 3 mps 719 mmHg 23%
    09:00 +24°C° 0 mm 3 mps 720 mmHg 21%
    10:00 +25°C° 0 mm 4 mps 720 mmHg 19%
    11:00 +27°C° 0 mm 4 mps 720 mmHg 17%
    12:00 +29°C° 0 mm 5 mps 720 mmHg 15%
    13:00 +29°C° 0 mm 5 mps 720 mmHg 15%
    14:00 +30°C° 0 mm 5 mps 719 mmHg 14%
    15:00 +30°C° 0 mm 6 mps 719 mmHg 14%
    16:00 +29°C° 0 mm 5 mps 719 mmHg 15%
    17:00 +28°C° 0 mm 4 mps 719 mmHg 16%
    18:00 +26°C° 0 mm 3 mps 719 mmHg 18%
    19:00 +26°C° 0 mm 3 mps 719 mmHg 18%
    20:00 +25°C° 0 mm 3 mps 720 mmHg 18%
    21:00 +23°C° 0 mm 4 mps 720 mmHg 19%
    22:00 +24°C° 0 mm 3 mps 720 mmHg 19%
    23:00 +22°C° 0 mm 3 mps 720 mmHg 20%

    Tomorrow, 25 October, Wednesday

    Time Temperature Precipitation Wind Pressure Humidity
    00:00 +22°C° 0 mm 3 mps 720 mmHg 21%
    01:00 +21°C° 0 mm 3 mps 720 mmHg 21%
    02:00 +21°C° 0 mm 3 mps 720 mmHg 22%
    03:00 +21°C° 0 mm 3 mps 720 mmHg 22%
    04:00 +20°C° 0 mm 3 mps 720 mmHg 23%
    05:00 +20°C° 0 mm 3 mps 720 mmHg 23%
    06:00 +20°C° 0 mm 3 mps 720 mmHg 24%
    07:00 +21°C° 0 mm 3 mps 720 mmHg 22%
    08:00 +24°C° 0 mm 3 mps 721 mmHg 20%
    09:00 +26°C° 0 mm 3 mps 721 mmHg 18%
    10:00 +27°C° 0 mm 3 mps 721 mmHg 17%
    11:00 +29°C° 0 mm 4 mps 721 mmHg 15%
    12:00 +32°C° 0 mm 4 mps 721 mmHg 14%
    13:00 +32°C° 0 mm 4 mps 721 mmHg 14%
    14:00 +32°C° 0 mm 4 mps 721 mmHg 14%
    15:00 +33°C° 0 mm 4 mps 720 mmHg 13%
    16:00 +30°C° 0 mm 4 mps 720 mmHg 15%
    17:00 +29°C° 0 mm 3 mps 720 mmHg 16%
    18:00 +27°C° 0 mm 2 mps 720 mmHg 17%
    19:00 +26°C° 0 mm 2 mps 720 mmHg 19%
    20:00 +25°C° 0 mm 2 mps 720 mmHg 20%
    21:00 +24°C° 0 mm 1 mps 721 mmHg 21%
    22:00 +24°C° 0 mm 1 mps 721 mmHg 23%
    23:00 +23°C° 0 mm 1 mps 721 mmHg 25%

    Day after tomorrow, 26 October, Thursday

    Time Temperature Precipitation Wind Pressure Humidity
    00:00 +22°C° 0 mm 1 mps 721 mmHg 27%
    01:00 +22°C° 0 mm 1 mps 721 mmHg 28%
    02:00 +21°C° 0 mm 1 mps 721 mmHg 29%
    03:00 +21°C° 0 mm 1 mps 721 mmHg 31%
    04:00 +20°C° 0 mm 1 mps 720 mmHg 32%
    05:00 +20°C° 0 mm 1 mps 720 mmHg 33%
    06:00 +18°C° 0 mm 0 mps 720 mmHg 35%
    07:00 +21°C° 0 mm 1 mps 721 mmHg 32%
    08:00 +23°C° 0 mm 1 mps 721 mmHg 30%
    09:00 +24°C° 0 mm 1 mps 722 mmHg 27%
    10:00 +25°C° 0 mm 2 mps 722 mmHg 26%
    11:00 +27°C° 0 mm 3 mps 722 mmHg 24%
    12:00 +28°C° 0 mm 3 mps 722 mmHg 22%
    13:00 +28°C° 0 mm 4 mps 722 mmHg 22%
    14:00 +29°C° 0 mm 4 mps 721 mmHg 22%
    15:00 +29°C° 0 mm 4 mps 721 mmHg 21%
    16:00 +28°C° 0 mm 3 mps 721 mmHg 24%
    17:00 +26°C° 0 mm 3 mps 720 mmHg 26%
    18:00 +25°C° 0 mm 2 mps 720 mmHg 28%
    19:00 +24°C° 0 mm 2 mps 720 mmHg 29%
    20:00 +24°C° 0 mm 1 mps 721 mmHg 31%
    21:00 +23°C° 0 mm 1 mps 721 mmHg 32%
    22:00 +22°C° 0 mm 1 mps 721 mmHg 33%
    23:00 +22°C° 0 mm 1 mps 721 mmHg 35%

    27 October, Friday

    Time Temperature Precipitation Wind Pressure Humidity
    00:00 +21°C° 0 mm 1 mps 721 mmHg 36%
    01:00 +21°C° 0 mm 1 mps 720 mmHg 37%
    02:00 +21°C° 0 mm 1 mps 720 mmHg 38%
    03:00 +20°C° 0 mm 1 mps 720 mmHg 39%
    04:00 +20°C° 0 mm 1 mps 720 mmHg 39%
    05:00 +20°C° 0 mm 1 mps 720 mmHg 40%
    06:00 +19°C° 0 mm 1 mps 720 mmHg 40%
    07:00 +21°C° 0 mm 1 mps 720 mmHg 36%
    08:00 +22°C° 0 mm 1 mps 720 mmHg 33%
    09:00 +24°C° 0 mm 1 mps 721 mmHg 29%
    10:00 +25°C° 0 mm 1 mps 720 mmHg 26%
    11:00 +27°C° 0 mm 1 mps 720 mmHg 23%
    12:00 +28°C° 0 mm 1 mps 720 mmHg 20%
    13:00 +29°C° 0 mm 1 mps 720 mmHg 18%
    14:00 +29°C° 0 mm 1 mps 719 mmHg 17%
    15:00 +30°C° 0 mm 1 mps 719 mmHg 16%
    16:00 +29°C° 0 mm 1 mps 718 mmHg 18%
    17:00 +27°C° 0 mm 1 mps 718 mmHg 19%
    18:00 +26°C° 0 mm 1 mps 718 mmHg 21%
    19:00 +26°C° 0 mm 1 mps 718 mmHg 22%
    20:00 +25°C° 0 mm 1 mps 718 mmHg 23%
    21:00 +24°C° 0 mm 1 mps 718 mmHg 23%
    22:00 +24°C° 0 mm 1 mps 718 mmHg 24%
    23:00 +23°C° 0 mm 1 mps 718 mmHg 26%

    28 October, Saturday

    Time Temperature Precipitation Wind Pressure Humidity
    00:00 +23°C° 0 mm 1 mps 717 mmHg 27%
    01:00 +22°C° 0 mm 1 mps 717 mmHg 28%
    02:00 +21°C° 0 mm 2 mps 717 mmHg 29%
    03:00 +21°C° 0 mm 2 mps 717 mmHg 31%
    04:00 +21°C° 0.2 mm 2 mps 717 mmHg 32%
    05:00 +21°C° 0.2 mm 2 mps 717 mmHg 34%
    06:00 +21°C° 0.2 mm 2 mps 717 mmHg 35%
    07:00 +23°C° 0.2 mm 2 mps 717 mmHg 36%
    08:00 +22°C° 0.2 mm 3 mps 717 mmHg 37%
    09:00 +23°C° 0.2 mm 4 mps 717 mmHg 38%
    10:00 +23°C° 0.2 mm 4 mps 717 mmHg 40%
    11:00 +23°C° 0.2 mm 4 mps 716 mmHg 41%
    12:00 +23°C° 0.2 mm 5 mps 716 mmHg 43%
    13:00 +22°C° 0.7 mm 5 mps 716 mmHg 48%
    14:00 +22°C° 0.7 mm 5 mps 715 mmHg 54%
    15:00 +21°C° 0.7 mm 5 mps 715 mmHg 59%
    16:00 +21°C° 0.1 mm 4 mps 715 mmHg 61%
    17:00 +20°C° 0.1 mm 4 mps 715 mmHg 62%
    18:00 +20°C° 0.1 mm 3 mps 715 mmHg 63%
    19:00 +20°C° 0 mm 2 mps 715 mmHg 64%
    20:00 +19°C° 0 mm 2 mps 716 mmHg 65%
    21:00 +19°C° 0 mm 2 mps 716 mmHg 66%
    22:00 +19°C° 0 mm 2 mps 716 mmHg 65%
    23:00 +18°C° 0 mm 2 mps 716 mmHg 65%

    29 October, Sunday

    Time Temperature Precipitation Wind Pressure Humidity
    00:00 +19°C° 0 mm 1 mps 716 mmHg 65%
    01:00 +19°C° 0.1 mm 1 mps 716 mmHg 65%
    02:00 +19°C° 0.1 mm 1 mps 716 mmHg 65%
    03:00 +18°C° 0.1 mm 1 mps 716 mmHg 65%
    04:00 +18°C° 0.1 mm 1 mps 716 mmHg 66%
    05:00 +18°C° 0.1 mm 1 mps 717 mmHg 67%
    06:00 +18°C° 0.1 mm 1 mps 717 mmHg 69%
    07:00 +19°C° 0 mm 1 mps 718 mmHg 64%
    08:00 +20°C° 0 mm 1 mps 718 mmHg 59%
    09:00 +21°C° 0 mm 1 mps 719 mmHg 54%
    10:00 +21°C° 0 mm 2 mps 719 mmHg 50%
    11:00 +23°C° 0 mm 2 mps 719 mmHg 46%
    12:00 +24°C° 0 mm 3 mps 719 mmHg 42%
    13:00 +25°C° 0 mm 3 mps 719 mmHg 41%
    14:00 +25°C° 0 mm 3 mps 718 mmHg 41%
    15:00 +25°C° 0 mm 3 mps 718 mmHg 40%
    16:00 +25°C° 0 mm 3 mps 718 mmHg 42%
    17:00 +24°C° 0 mm 3 mps 719 mmHg 45%
    18:00 +22°C° 0 mm 3 mps 719 mmHg 48%
    19:00 +23°C° 0 mm 2 mps 719 mmHg 50%
    20:00 +21°C° 0 mm 2 mps 719 mmHg 53%
    21:00 +20°C° 0 mm 2 mps 720 mmHg 55%
    22:00 +20°C° 0 mm 2 mps 720 mmHg 57%
    23:00 +21°C° 0 mm 1 mps 720 mmHg 58%

    30 October, Monday

    Time Temperature Precipitation Wind Pressure Humidity
    00:00 +20°C° 0 mm 1 mps 720 mmHg 60%
    01:00 +20°C° 0 mm 1 mps 720 mmHg 61%
    02:00 +19°C° 0 mm 1 mps 720 mmHg 63%
    03:00 +19°C° 0 mm 1 mps 720 mmHg 64%
    04:00 +19°C° 0 mm 1 mps 720 mmHg 65%
    05:00 +19°C° 0 mm 1 mps 721 mmHg 66%
    06:00 +16°C° 0 mm 0 mps 721 mmHg 67%
    07:00 +19°C° 0 mm 1 mps 721 mmHg 62%
    08:00 +21°C° 0 mm 1 mps 722 mmHg 57%
    09:00 +22°C° 0 mm 1 mps 722 mmHg 53%
    10:00 +23°C° 0 mm 1 mps 723 mmHg 49%
    11:00 +24°C° 0 mm 1 mps 723 mmHg 46%
    12:00 +25°C° 0 mm 2 mps 723 mmHg 42%
    13:00 +26°C° 0 mm 2 mps 722 mmHg 40%
    14:00 +26°C° 0 mm 2 mps 722 mmHg 39%
    15:00 +26°C° 0 mm 2 mps 722 mmHg 37%
    16:00 +25°C° 0 mm 2 mps 722 mmHg 39%
    17:00 +25°C° 0 mm 2 mps 722 mmHg 41%
    18:00 +24°C° 0 mm 1 mps 722 mmHg 42%
    19:00 +23°C° 0 mm 1 mps 722 mmHg 44%
    20:00 +23°C° 0 mm 1 mps 722 mmHg 45%
    21:00 +22°C° 0 mm 1 mps 722 mmHg 47%
    22:00 +22°C° 0 mm 1 mps 722 mmHg 48%
    23:00 +21°C° 0 mm 1 mps 722 mmHg 49%
    Show more